This is the latest recevied weather packets stored in our database for station/object KD2ZLA. If no packets are shown the sender has not sent any weather packets the latest 10 day(s).
| Time | Temp. | Humidity | Pressure | Rain* | Wind** | Luminosity | Snow |
|---|---|---|---|---|---|---|---|
| 1777901396 | 10.56° C | 70% | 1005.6 hPa | 0 mm | - | 108 W/m² | - |
| 1777901093 | 10.56° C | 70% | 1005.3 hPa | 0 mm | - | 109 W/m² | - |
| 1777900791 | 10.56° C | 70% | 1005.7 hPa | 0 mm | - | 119 W/m² | - |
| 1777900488 | 10.56° C | 71% | 1005.7 hPa | 0 mm | - | 164 W/m² | - |
| 1777900185 | 10° C | 72% | 1005.5 hPa | 0 mm | - | 122 W/m² | - |
| 1777899881 | 10° C | 72% | 1005.6 hPa | 0 mm | - | 116 W/m² | - |
| 1777899578 | 10° C | 74% | 1005.6 hPa | 0 mm | - | 142 W/m² | - |
| 1777899276 | 10° C | 73% | 1005.6 hPa | 0 mm | - | 139 W/m² | - |
| 1777898973 | 10° C | 74% | 1005.4 hPa | 0 mm | - | 132 W/m² | - |
| 1777898670 | 10° C | 74% | 1005.3 hPa | 0 mm | - | 225 W/m² | - |
| 1777898367 | 10° C | 75% | 1005.6 hPa | 0 mm | - | 155 W/m² | - |
| 1777898065 | 9.44° C | 75% | 1005.7 hPa | 0 mm | - | 105 W/m² | - |
| 1777897761 | 9.44° C | 77% | 1005.8 hPa | 0 mm | - | 57 W/m² | - |
| 1777897457 | 8.89° C | 77% | 1005.7 hPa | 0 mm | - | 38 W/m² | - |
| 1777897153 | 8.89° C | 78% | 1005.4 hPa | 0.51 mm | - | 47 W/m² | - |
| 1777896849 | 8.89° C | 79% | 1005.5 hPa | 0.51 mm | - | 60 W/m² | - |
| 1777896547 | 8.89° C | 77% | 1005.5 hPa | 0 mm | - | 26 W/m² | - |
| 1777896244 | 8.89° C | 77% | 1005.5 hPa | 0 mm | - | 18 W/m² | - |
| 1777895942 | 8.89° C | 79% | 1005.5 hPa | 0 mm | - | 17 W/m² | - |
| 1777895639 | 8.89° C | 79% | 1005.6 hPa | 0 mm | - | 29 W/m² | - |
| 1777895336 | 8.89° C | 79% | 1005.3 hPa | 1.27 mm | - | 24 W/m² | - |
| 1777895034 | 8.89° C | 78% | 1005.6 hPa | 1.78 mm | - | 18 W/m² | - |
| 1777894731 | 9.44° C | 75% | 1005.6 hPa | 0.51 mm | - | 8 W/m² | - |
| 1777894428 | 10° C | 72% | 1005.5 hPa | 0.51 mm | - | 11 W/m² | - |
| 1777894125 | 10° C | 70% | 1005.5 hPa | 0.51 mm | - | 17 W/m² | - |
* Rain latest hour (hover to see other rain measurements)
** Current wind speed in m/s (hover to see current wind gust speed)